Showing default

TIROS 1, 29

Orbit data source: Space-Track

TIROS 1, 29 is a payload satellite owned by GSFC (US) in LEO that was launched on Fri, 01 Apr 1960 UTC via a THOR ABLE II launch vehicle from the Air Force Eastern Test Range (AFETR). Payload-class satellites include a variety of spacecraft equipped with specific instruments for various scientific and technological missions. These include communications satellites like Starlink; space stations such as the ISS; scientific satellites like the Hubble; Earth observation satellites from companies like Planet Labs, Umbra, and HawkEye 360; GPS; miniature CubeSats for education and research; and military/defense satellites.

Loading next visibility...
Identifier
29, 1960-002B
Orbit
LEO
Country
Flag of USUS
Related business
Manufacturer
RCA/East Windsor
Mission
Non-operational spacecraft
Bus & Motor
TIROS, Unknown motor
Mass
122 kg wet, 122 kg dry
Launch date (UTC)
1960-04-01 (66 years ago)
Launch vehicle
THOR ABLE II
Launch site
Air Force Eastern Test Range (AFETR)
Object type
Payload
Rocket body
Debris
Shape & HBR
Unknown
Radar Cross Section
Medium (>0.1 m² and <1 m²)

Expand to show TLE details & history
Last TLE update: 1 day ago

TLE from 1 day ago
0 TIROS 1
1 00029U 60002B   25351.76025934  .00000517  00000-0  98984-4 0  9996
2 00029  48.3768 166.6727 0022716 208.1770 151.7916 14.78425475515285
Epoch: 2025-12-17T18:14Z
TLE epoch observation values (Epoch: 2025-12-17T18:14:46.406Z)
Latitude
-0.00001°
Longitude
166.35384°
Altitude
648.71 km
Speed
7.527 km/s
True Right ascension
11h 06m 41s
True Declination
0° 00' 00"
Sunlit
Object was in daylight at epoch
Visualization orbit readout
Latitude
Unknown
Longitude
Unknown
Altitude
Unknown
Speed
Unknown
Apparent Right ascension
Unknown
Apparent Declination
Unknown
Sunlit
N/A
Visualization observer readout
Local Sidereal Time
00:42:59
Azimuth
Unknown
Elevation
Unknown
Doppler factor
Unknown
Orbital elements
Apogee altitude
651.251 km
Perigee altitude
619.387 km
Semi-major axis
7,013.456 km
Eccentricity
0.00227
Inclination
48.3768°
RAAN
166.6727°
Arg. of periapsis
208.177°
True anomaly
151.91433°
Mean anomaly
151.7916°
Eccentric anomaly
151.853°
Mean motion
3.69526 °/min
Orbital period
97.42 mins
BSTAR
0.000098984
Loading maneuver chart data...
Computing Atmospheric mass density...
Loading historical data...
Loading historical data...
Loading historical data...
Loading historical data...
Loading historical data...
Loading historical data...
Loading historical data...
Other satellites on launch #2 in the year 1960 (1960-04-01 UTC)

Documentation

Showing up to 5 results
|